Wind_Speed
31 27 24 23 22 21 19 17 16 15 14 13 11 9 9 9 8 6 5 3 1 1 3 4 7 9 10 10 11 13 14 15 14 14 14 14 14 13 13 12 12 11
32 29 26 25 24 23 21 19 18 16 15 14 11 10 10 10 8 7 6 4 3 3 2 3 6 8 9 10 11 12 13 13 13 13 14 14 14 14 14 13 13 13
33 30 29 27 26 25 24 22 20 18 17 15 14 12 12 12 11 9 7 7 6 5 3 3 5 7 8 9 10 11 12 12 12 12 13 13 13 13 13 14 14 14
35 33 31 29 28 27 25 23 23 21 19 18 16 15 14 14 13 12 10 10 9 7 4 2 3 5 6 7 8 10 11 11 11 11 12 13 13 13 14 15 15 14
34 34 32 31 29 28 27 25 25 24 22 20 18 16 16 15 15 14 13 12 11 8 5 1 2 3 5 6 7 8 9 9 10 10 12 13 14 15 16 16 16 15
32 33 33 32 31 30 29 27 26 25 24 22 20 18 17 16 15 15 14 13 12 9 5 2 0 2 3 5 7 8 8 9 10 11 12 13 14 15 16 16 16 16
35 35 34 34 33 32 31 29 28 27 25 23 22 21 19 17 16 15 14 13 11 9 6 4 2 2 3 5 6 7 8 9 10 11 12 13 14 15 15 15 15 15
36 35 35 35 35 34 33 31 30 29 27 25 24 23 21 19 18 16 15 14 11 9 7 5 4 3 4 5 6 7 9 10 10 11 13 13 14 15 15 15 15 15
35 35 35 35 36 35 34 33 32 30 28 27 26 25 23 21 20 18 16 14 12 9 7 6 5 4 4 5 6 8 9 10 11 12 13 14 14 15 15 15 16 16
38 38 36 36 37 37 37 36 34 32 30 28 27 26 25 23 21 20 18 16 13 11 9 7 6 4 4 4 6 7 8 9 11 12 13 14 15 15 16 16 16 16
41 39 37 38 39 38 38 37 35 33 31 29 28 27 26 25 23 21 19 17 14 12 10 8 6 5 4 4 5 6 7 9 11 12 13 15 15 16 17 17 17 17
40 38 37 38 39 40 39 37 35 33 31 30 29 28 27 26 24 22 19 17 15 12 10 8 7 5 5 4 4 5 6 8 10 11 13 15 16 17 17 18 18 18
37 38 39 39 39 39 39 36 35 33 32 31 30 29 28 27 24 21 18 16 14 12 10 9 7 5 4 3 3 4 6 8 10 12 14 16 17 18 18 19 19 19
34 37 39 38 36 37 37 36 35 34 34 32 31 30 30 28 25 21 18 16 13 12 11 9 6 4 3 2 3 4 7 9 12 14 15 17 18 19 19 20 20 21
32 34 36 35 35 36 37 38 38 37 36 34 33 32 31 28 25 22 19 17 15 13 11 8 6 4 3 2 3 6 9 11 12 14 15 17 19 20 21 21 22 22
30 32 33 34 36 37 39 40 39 38 37 36 35 33 30 27 25 22 19 18 17 15 12 9 7 6 3 2 5 8 10 11 12 14 15 16 18 20 21 22 23 23
27 30 32 34 35 37 37 36 33 33 34 34 34 32 29 27 24 22 20 19 17 15 12 10 8 6 3 3 5 8 11 11 12 14 15 16 18 20 22 24 25 25
25 28 30 32 33 33 32 29 27 29 31 32 32 31 29 27 25 23 22 20 17 15 13 11 9 5 3 3 5 8 10 11 12 14 15 16 18 20 23 25 26 27
24 27 29 30 30 29 29 28 30 33 34 33 32 30 29 28 26 25 23 21 18 16 14 11 8 6 4 3 5 8 10 12 13 14 16 17 19 21 23 25 27 28
23 25 27 28 27 27 28 30 33 34 33 33 32 30 29 27 26 25 23 20 17 15 13 11 8 6 4 4 6 9 11 13 15 16 17 19 21 23 24 26 27 28
21 23 25 25 25 27 30 33 35 36 36 34 33 30 28 26 26 24 22 19 17 15 12 9 7 5 4 5 8 10 12 14 16 18 19 21 23 25 26 27 27 28
21 22 23 24 26 28 31 33 35 38 38 36 32 29 28 27 26 23 20 18 16 14 11 8 6 5 6 8 10 12 13 15 17 20 21 23 25 27 27 27 27 28
21 22 23 25 27 29 32 35 36 37 37 35 32 30 29 27 25 21 18 16 14 12 10 7 6 6 7 9 11 13 14 16 19 21 22 25 27 27 27 27 27 27
21 22 24 26 28 31 34 34 33 32 33 33 32 31 29 26 22 18 15 12 11 10 8 6 6 8 9 11 13 13 14 17 20 22 24 26 27 27 27 27 28 27
21 23 25 27 29 31 34 33 30 30 31 30 29 27 24 21 17 14 12 12 11 10 8 8 9 10 11 13 14 14 15 18 21 22 25 26 27 27 27 27 27 27
21 23 26 28 29 31 33 34 34 34 32 28 24 21 19 17 15 14 14 13 11 10 9 10 11 11 13 14 15 14 16 19 22 24 26 27 27 27 28 28 27 27
Wind_Direction
217 219 221 221 222 223 220 215 211 207 204 201 200 194 181 176 179 182 185 192 208 348 18 31 25 23 29 32 29 26 23 24 30 32 32 32 33 30 28 26 21 15
217 221 223 223 223 224 224 221 219 216 211 206 203 198 187 183 185 191 200 215 237 266 318 2 10 17 25 27 26 23 20 22 26 26 24 22 20 17 15 13 10 6
217 221 223 223 225 225 224 223 223 223 219 213 207 201 195 193 194 199 208 221 232 241 262 323 356 9 16 20 20 17 17 19 18 14 11 10 7 4 2 357 355 353
218 222 224 225 227 228 226 224 224 224 221 218 213 208 203 199 197 202 209 216 223 227 236 287 352 8 15 17 14 11 13 11 7 4 2 1 358 354 352 350 348 348
222 224 226 227 229 229 228 228 227 226 223 221 219 214 211 206 203 205 207 211 213 214 213 229 0 13 17 15 10 6 7 7 3 1 360 357 354 352 351 350 351 352
229 228 228 229 230 229 229 230 231 229 226 224 221 219 217 213 212 211 211 210 208 204 199 196 269 5 9 5 3 360 1 5 2 359 360 358 355 353 351 350 349 349
231 230 230 230 230 230 230 231 232 231 228 226 223 220 219 217 216 216 214 212 207 203 204 213 239 289 340 350 353 353 355 358 358 359 1 359 355 353 351 348 345 343
233 233 231 231 230 230 230 231 232 231 229 226 222 219 218 217 217 216 214 213 210 210 219 233 249 273 316 338 343 342 347 355 358 0 360 357 354 351 348 345 341 338
236 237 234 232 231 229 229 229 231 231 229 227 222 217 215 214 215 214 212 212 214 220 232 246 255 275 311 330 332 335 346 355 357 355 352 350 349 347 345 342 338 334
236 236 234 233 233 230 228 228 229 229 228 226 221 216 213 211 210 210 209 209 214 225 237 246 255 273 299 311 320 334 346 350 348 345 343 343 342 340 339 337 334 331
233 234 231 231 232 231 228 226 226 227 226 223 219 214 211 207 205 204 206 208 213 224 232 238 249 263 275 293 317 336 341 340 338 337 335 335 333 332 330 328 326 324
231 232 232 231 231 230 228 225 224 224 221 218 216 212 207 205 203 202 203 205 210 217 222 226 232 243 260 288 315 326 330 331 330 328 326 324 322 321 319 317 316 314
231 233 234 233 231 229 227 223 221 220 217 214 212 208 204 201 199 199 199 203 208 210 211 214 217 227 254 285 304 313 319 322 322 321 319 316 314 313 311 310 309 307
234 235 235 234 231 228 224 221 220 218 214 210 206 202 200 198 196 195 197 202 205 203 202 203 206 215 231 251 282 307 318 321 321 319 315 312 310 309 308 306 304 302
239 236 234 232 229 225 223 223 221 215 208 204 200 198 196 194 193 194 196 197 195 192 192 191 190 195 204 242 299 321 327 329 327 322 317 313 311 309 308 305 303 300
243 238 234 230 227 226 225 223 219 210 202 197 195 193 191 188 188 192 195 194 189 185 182 180 183 188 199 282 321 334 341 342 338 330 323 317 313 311 310 307 305 302
249 241 235 231 228 225 222 220 213 202 195 191 189 187 186 185 186 189 190 190 187 181 177 178 180 186 214 296 326 343 352 351 345 337 330 322 316 312 310 308 307 304
259 246 237 232 227 221 216 212 204 195 191 189 188 185 184 183 184 185 184 183 182 178 176 177 180 194 237 292 328 348 354 352 348 343 337 331 325 318 313 310 307 304
268 252 241 233 224 216 211 204 197 193 190 188 188 187 185 183 182 182 180 179 179 178 177 177 185 211 245 294 330 340 345 346 346 344 339 335 332 326 320 315 310 305
271 255 243 232 221 211 206 198 192 190 187 186 188 187 184 181 180 179 178 178 181 181 179 183 197 220 246 292 318 325 331 336 339 339 337 335 333 329 324 319 313 307
271 253 239 227 216 206 199 194 190 188 186 187 188 185 183 183 182 180 178 178 182 184 184 192 207 222 250 289 308 315 322 328 333 335 335 333 330 328 324 319 315 309
269 248 232 220 209 199 194 191 189 187 186 185 184 183 183 184 182 180 180 180 182 187 191 197 209 231 262 288 303 310 316 325 331 333 332 330 328 326 323 319 315 309
265 242 226 214 202 195 192 191 189 186 183 181 180 180 181 182 181 180 181 183 185 192 199 204 220 245 269 287 298 306 315 326 332 332 330 327 325 324 321 316 312 308
261 239 223 210 201 196 193 191 188 183 179 179 180 180 179 178 177 175 179 188 196 203 211 225 244 255 272 287 294 303 317 328 333 331 327 324 322 320 317 313 310 307
258 236 220 210 203 197 192 187 183 179 176 176 178 177 175 174 176 181 188 196 204 212 226 246 256 263 276 286 291 300 318 331 334 329 323 321 318 315 313 310 307 304
253 232 219 211 203 195 188 184 179 172 168 169 172 175 179 181 183 188 192 196 206 221 239 252 260 268 277 283 288 300 320 333 333 327 322 318 315 313 310 308 305 302
Height
805 807 808 809 810 811 811 812 813 815 816 817 818 820 821 822 824 825 826 827 827 828 828 829 829 830 830 830 831 831 831 831 831 831 832 832 832 832 832 832 832 832
803 805 806 808 809 810 810 811 812 813 815 816 817 819 820 821 823 824 825 826 827 827 828 829 829 829 830 830 830 831 831 831 831 832 832 832 832 832 832 832 832 832
801 802 804 805 806 808 809 810 811 812 813 815 816 817 818 819 821 822 823 825 826 827 827 828 828 829 829 829 830 831 831 831 832 832 832 832 832 832 832 832 832 832
799 800 801 803 804 806 807 808 809 810 812 813 814 815 816 817 818 820 821 823 824 825 826 827 827 828 828 829 829 830 831 831 831 832 832 832 832 832 832 832 832 831
799 800 801 802 803 804 806 806 807 809 810 812 814 815 815 816 817 818 819 820 821 823 824 825 826 826 827 828 828 830 830 830 831 831 831 831 831 831 831 830 830 830
799 800 800 801 802 802 804 804 805 807 808 810 812 814 815 816 816 817 818 819 820 821 822 823 824 824 825 826 827 828 829 829 830 830 830 830 830 830 830 829 829 829
795 797 798 800 800 801 802 803 804 805 806 808 810 811 813 814 815 816 817 818 819 820 820 821 822 822 823 824 825 826 827 827 828 828 828 829 829 829 829 829 828 828
793 795 796 797 798 798 800 800 801 802 804 805 807 809 810 812 814 815 816 817 818 819 819 819 820 821 821 822 823 824 825 825 826 826 826 826 827 827 827 827 827 827
792 793 794 795 795 796 797 798 799 800 801 803 804 806 807 809 811 813 814 816 817 817 818 818 819 819 820 821 821 822 823 823 824 824 824 824 824 824 824 825 825 825
788 788 790 792 792 792 793 794 796 797 799 800 802 803 805 806 808 810 812 813 814 815 816 817 817 818 819 819 820 821 821 822 822 822 822 823 822 822 822 822 822 822
783 784 785 786 788 789 790 791 792 794 796 798 800 801 802 804 806 807 809 810 812 813 814 815 816 817 818 818 819 819 819 820 820 821 821 821 821 821 821 820 820 820
780 780 781 781 783 785 786 788 789 791 794 796 798 799 801 803 804 806 807 809 810 812 813 814 815 816 817 817 818 818 818 818 819 819 820 820 820 820 819 819 818 817
777 778 778 778 780 781 783 785 786 788 790 792 795 797 799 801 803 805 807 808 809 810 812 813 814 815 816 816 817 816 817 817 817 817 818 818 818 818 817 817 816 815
774 775 776 777 778 780 782 783 783 784 786 788 791 794 796 798 800 803 805 807 808 809 811 812 813 814 815 815 816 816 816 815 815 816 816 816 816 815 815 815 814 813
772 772 773 775 776 778 779 779 779 779 780 784 788 790 793 795 798 801 803 805 807 808 809 811 812 813 814 815 815 815 815 814 814 814 813 813 813 813 812 812 811 810
769 770 770 771 772 773 775 776 776 775 777 780 784 787 791 793 796 799 801 803 805 806 808 809 811 812 813 814 814 814 813 813 812 812 811 811 810 810 809 809 808 807
767 767 768 768 768 770 772 774 775 777 778 780 783 786 789 791 794 797 800 802 804 805 806 807 809 810 811 812 813 813 812 811 810 809 809 809 808 807 806 805 805 804
765 765 765 765 766 768 770 772 776 779 781 783 785 786 787 788 791 794 797 800 802 803 804 805 807 808 809 810 811 811 811 809 808 807 806 806 806 805 804 803 801 800
763 763 763 764 765 767 769 771 774 776 779 782 784 786 786 786 789 791 794 797 799 801 802 803 804 805 806 808 808 809 809 808 807 805 804 804 803 802 801 800 799 797
762 762 762 763 764 766 768 770 772 774 777 780 783 785 786 787 788 790 793 795 797 799 800 800 801 803 804 806 806 807 807 805 804 803 802 801 800 800 799 798 797 795
759 760 760 761 763 764 766 767 768 770 773 776 779 781 784 786 788 790 792 794 796 798 798 798 799 801 802 804 804 804 804 803 802 801 800 798 797 797 796 795 794 792
757 757 758 759 761 762 763 765 766 767 768 772 776 779 782 785 787 789 790 793 795 796 796 796 797 799 800 801 801 801 801 800 800 798 797 795 794 793 793 792 791 789
755 755 756 757 758 760 761 762 764 765 765 768 773 778 781 784 786 787 789 791 793 794 794 795 796 797 798 799 799 799 799 798 797 795 793 792 791 790 789 788 787 786
753 753 754 755 756 757 759 760 763 764 765 768 772 776 780 783 785 787 789 791 792 793 794 794 795 796 797 797 797 797 797 796 794 792 790 788 787 786 785 784 783 782
750 751 752 753 754 755 756 758 762 765 767 770 774 777 780 782 784 785 788 790 791 792 793 793 794 795 795 795 795 795 795 794 791 789 787 785 784 782 781 781 779 777
748 749 750 751 752 753 755 756 759 762 766 770 774 777 780 781 782 784 787 789 790 791 791 792 792 793 793 794 794 794 793 791 789 787 784 782 781 779 778 776 774 773